Time,TemperatureF,DewpointF,PressureIn,WindDirection,WindDirectionDegrees,WindSpeedMPH,WindSpeedGustMPH,Humidity,HourlyPrecipIn,Conditions,Clouds,dailyrainin,SoftwareType,DateUTC
2013-05-23 00:01:00,73.0,70.3,29.93,SW,225,2.0,4.0,91,0.00,,,0.00,meteohub,2013-05-23 04:01:00,
2013-05-23 00:06:00,72.9,70.2,29.94,NW,315,2.0,4.0,91,0.00,,,0.00,meteohub,2013-05-23 04:06:00,
2013-05-23 00:11:00,72.9,70.2,29.93,NW,315,2.0,4.0,91,0.00,,,0.00,meteohub,2013-05-23 04:11:00,
2013-05-23 00:16:00,72.7,70.0,29.93,North,0,3.0,4.0,91,0.00,,,0.00,meteohub,2013-05-23 04:16:00,
2013-05-23 00:21:00,72.5,69.8,29.93,NE,45,4.0,4.0,91,0.00,,,0.00,meteohub,2013-05-23 04:21:00,
2013-05-23 00:26:00,72.5,70.0,29.93,SW,225,2.0,4.0,92,0.00,,,0.00,meteohub,2013-05-23 04:26:00,
2013-05-23 00:32:00,72.3,69.8,29.93,NE,45,2.0,4.0,92,0.00,,,0.00,meteohub,2013-05-23 04:32:00,
2013-05-23 00:37:00,72.3,69.8,29.93,SW,225,0.0,4.0,92,0.00,,,0.00,meteohub,2013-05-23 04:37:00,
2013-05-23 00:42:00,72.1,69.6,29.93,East,90,1.0,4.0,92,0.00,,,0.00,meteohub,2013-05-23 04:42:00,
2013-05-23 00:47:00,72.0,69.4,29.93,West,270,2.0,4.0,92,0.00,,,0.00,meteohub,2013-05-23 04:47:00,
2013-05-23 00:52:00,72.0,69.8,29.93,West,270,1.0,6.0,93,0.00,,,0.00,meteohub,2013-05-23 04:52:00,
2013-05-23 00:57:00,71.8,69.6,29.93,NW,315,0.0,6.0,93,0.00,,,0.00,meteohub,2013-05-23 04:57:00,
2013-05-23 01:02:00,71.6,69.4,29.93,NE,45,1.0,6.0,93,0.00,,,0.00,meteohub,2013-05-23 05:02:00,
2013-05-23 01:07:00,71.6,69.4,29.94,East,90,2.0,3.0,93,0.00,,,0.00,meteohub,2013-05-23 05:07:00,
2013-05-23 01:12:00,71.6,69.4,29.94,SW,225,3.0,4.0,93,0.00,,,0.00,meteohub,2013-05-23 05:12:00,
2013-05-23 01:17:00,71.6,69.8,29.94,West,270,2.0,4.0,94,0.00,,,0.00,meteohub,2013-05-23 05:17:00,
2013-05-23 01:22:00,71.6,69.8,29.94,SW,225,2.0,4.0,94,0.00,,,0.00,meteohub,2013-05-23 05:22:00,
2013-05-23 01:27:00,71.6,69.8,29.94,NW,315,2.0,3.0,94,0.00,,,0.00,meteohub,2013-05-23 05:27:00,
2013-05-23 01:32:00,71.6,69.8,29.93,SW,225,2.0,4.0,94,0.00,,,0.00,meteohub,2013-05-23 05:32:00,
2013-05-23 01:37:00,71.6,69.8,29.93,NE,45,2.0,4.0,94,0.00,,,0.00,meteohub,2013-05-23 05:37:00,
2013-05-23 01:42:00,71.6,69.8,29.93,SW,225,4.0,9.0,94,0.00,,,0.00,meteohub,2013-05-23 05:42:00,
2013-05-23 01:47:00,71.6,69.8,29.93,SE,135,1.0,9.0,94,0.00,,,0.00,meteohub,2013-05-23 05:47:00,
2013-05-23 01:52:00,71.6,69.8,29.93,West,270,2.0,6.0,94,0.00,,,0.00,meteohub,2013-05-23 05:52:00,
2013-05-23 01:57:00,71.6,69.8,29.92,NW,315,2.0,4.0,94,0.00,,,0.00,meteohub,2013-05-23 05:57:00,
2013-05-23 02:02:00,71.6,69.8,29.93,East,90,2.0,3.0,94,0.00,,,0.00,meteohub,2013-05-23 06:02:00,
2013-05-23 02:07:00,71.8,70.0,29.93,West,270,1.0,3.0,94,0.00,,,0.00,meteohub,2013-05-23 06:07:00,
2013-05-23 02:12:00,71.8,70.0,29.93,NE,45,2.0,3.0,94,0.00,,,0.00,meteohub,2013-05-23 06:12:00,
2013-05-23 02:17:00,72.0,70.2,29.93,West,270,2.0,3.0,94,0.00,,,0.00,meteohub,2013-05-23 06:17:00,
2013-05-23 02:22:00,72.0,70.2,29.93,SW,225,3.0,3.0,94,0.00,,,0.00,meteohub,2013-05-23 06:22:00,
2013-05-23 02:27:00,72.0,70.2,29.93,SW,225,2.0,4.0,94,0.00,,,0.00,meteohub,2013-05-23 06:27:00,
2013-05-23 02:32:00,72.0,70.2,29.93,West,270,2.0,4.0,94,0.00,,,0.00,meteohub,2013-05-23 06:32:00,
2013-05-23 02:37:00,72.0,70.2,29.94,North,0,2.0,4.0,94,0.00,,,0.00,meteohub,2013-05-23 06:37:00,
2013-05-23 02:42:00,71.8,70.0,29.93,SW,225,2.0,4.0,94,0.00,,,0.00,meteohub,2013-05-23 06:42:00,
2013-05-23 02:47:00,71.8,70.0,29.93,NW,315,4.0,4.0,94,0.00,,,0.00,meteohub,2013-05-23 06:47:00,
2013-05-23 02:52:00,71.6,70.2,29.93,West,270,2.0,4.0,95,0.00,,,0.00,meteohub,2013-05-23 06:52:00,
2013-05-23 02:57:00,71.6,70.2,29.93,West,270,2.0,4.0,95,0.00,,,0.00,meteohub,2013-05-23 06:57:00,
2013-05-23 03:02:00,71.6,70.2,29.93,NW,315,3.0,4.0,95,0.00,,,0.00,meteohub,2013-05-23 07:02:00,
2013-05-23 03:07:00,71.6,70.2,29.93,NW,315,3.0,4.0,95,0.00,,,0.00,meteohub,2013-05-23 07:07:00,
2013-05-23 03:12:00,71.6,70.2,29.93,West,270,1.0,4.0,95,0.00,,,0.00,meteohub,2013-05-23 07:12:00,
2013-05-23 03:17:00,71.6,70.2,29.93,West,270,1.0,3.0,95,0.00,,,0.00,meteohub,2013-05-23 07:17:00,
2013-05-23 03:22:00,71.2,70.0,29.93,North,0,1.0,3.0,96,0.00,,,0.00,meteohub,2013-05-23 07:22:00,
2013-05-23 03:27:00,71.2,70.0,29.93,South,180,1.0,2.0,96,0.00,,,0.00,meteohub,2013-05-23 07:27:00,
2013-05-23 03:32:00,71.2,70.0,29.93,SW,225,1.0,2.0,96,0.00,,,0.00,meteohub,2013-05-23 07:32:00,
2013-05-23 03:37:00,71.2,70.0,29.94,West,270,2.0,2.0,96,0.00,,,0.00,meteohub,2013-05-23 07:37:00,
2013-05-23 03:42:00,71.2,70.0,29.93,SW,225,0.0,2.0,96,0.00,,,0.00,meteohub,2013-05-23 07:42:00,
2013-05-23 03:47:00,71.2,70.0,29.93,West,270,2.0,2.0,96,0.00,,,0.00,meteohub,2013-05-23 07:47:00,
2013-05-23 03:52:00,71.2,70.0,29.93,North,0,0.0,4.0,96,0.00,,,0.00,meteohub,2013-05-23 07:52:00,
2013-05-23 03:57:00,71.2,70.3,29.93,West,270,2.0,4.0,97,0.00,,,0.00,meteohub,2013-05-23 07:57:00,
2013-05-23 04:02:00,71.2,70.3,29.93,South,180,0.0,4.0,97,0.00,,,0.00,meteohub,2013-05-23 08:02:00,
2013-05-23 04:07:00,71.2,70.3,29.93,South,180,0.0,2.0,97,0.00,,,0.00,meteohub,2013-05-23 08:07:00,
2013-05-23 04:12:00,71.2,70.3,29.93,NW,315,3.0,3.0,97,0.00,,,0.00,meteohub,2013-05-23 08:12:00,
2013-05-23 04:17:00,71.2,70.3,29.93,SE,135,2.0,3.0,97,0.00,,,0.00,meteohub,2013-05-23 08:17:00,
2013-05-23 04:22:00,71.2,70.3,29.93,NW,315,2.0,3.0,97,0.00,,,0.00,meteohub,2013-05-23 08:22:00,
2013-05-23 04:27:00,71.2,70.3,29.93,South,180,2.0,3.0,97,0.00,,,0.00,meteohub,2013-05-23 08:27:00,
2013-05-23 04:32:00,71.2,70.3,29.93,East,90,2.0,2.0,97,0.00,,,0.00,meteohub,2013-05-23 08:32:00,
2013-05-23 04:37:00,71.2,70.3,29.93,South,180,2.0,4.0,97,0.00,,,0.00,meteohub,2013-05-23 08:37:00,
2013-05-23 04:42:00,71.2,70.3,29.92,NW,315,2.0,4.0,97,0.00,,,0.00,meteohub,2013-05-23 08:42:00,
2013-05-23 04:47:00,71.1,70.2,29.92,NW,315,2.0,4.0,97,0.00,,,0.00,meteohub,2013-05-23 08:47:00,
2013-05-23 04:52:00,71.1,69.8,29.92,East,90,1.0,3.0,96,0.00,,,0.00,meteohub,2013-05-23 08:52:00,
2013-05-23 04:57:00,71.1,69.8,29.93,West,270,2.0,3.0,96,0.00,,,0.00,meteohub,2013-05-23 08:57:00,
2013-05-23 05:02:00,71.1,69.8,29.93,NW,315,3.0,3.0,96,0.00,,,0.00,meteohub,2013-05-23 09:02:00,
2013-05-23 05:07:00,71.1,69.8,29.93,West,270,2.0,3.0,96,0.00,,,0.00,meteohub,2013-05-23 09:07:00,
2013-05-23 05:12:00,71.1,69.8,29.93,West,270,2.0,3.0,96,0.00,,,0.00,meteohub,2013-05-23 09:12:00,
2013-05-23 05:17:00,71.1,69.8,29.93,NW,315,3.0,3.0,96,0.00,,,0.00,meteohub,2013-05-23 09:17:00,
2013-05-23 05:22:00,71.1,69.8,29.93,West,270,2.0,3.0,96,0.00,,,0.00,meteohub,2013-05-23 09:22:00,
2013-05-23 05:27:00,71.1,69.8,29.93,East,90,1.0,3.0,96,0.00,,,0.00,meteohub,2013-05-23 09:27:00,
2013-05-23 05:32:00,71.1,69.8,29.93,West,270,1.0,3.0,96,0.00,,,0.00,meteohub,2013-05-23 09:32:00,
2013-05-23 05:37:00,71.1,69.8,29.93,NE,45,2.0,3.0,96,0.00,,,0.00,meteohub,2013-05-23 09:37:00,
2013-05-23 05:42:00,71.1,69.8,29.94,SW,225,1.0,3.0,96,0.00,,,0.00,meteohub,2013-05-23 09:42:00,
2013-05-23 05:47:00,71.1,69.8,29.94,West,270,2.0,3.0,96,0.00,,,0.00,meteohub,2013-05-23 09:47:00,
2013-05-23 05:52:00,71.1,70.2,29.94,West,270,2.0,2.0,97,0.00,,,0.00,meteohub,2013-05-23 09:52:00,
2013-05-23 05:57:00,71.1,70.2,29.94,SW,225,2.0,3.0,97,0.00,,,0.00,meteohub,2013-05-23 09:57:00,
2013-05-23 06:02:00,71.1,70.2,29.94,SW,225,1.0,3.0,97,0.00,,,0.00,meteohub,2013-05-23 10:02:00,
2013-05-23 06:07:00,71.1,70.2,29.94,NE,45,1.0,3.0,97,0.00,,,0.00,meteohub,2013-05-23 10:07:00,
2013-05-23 06:12:00,70.9,70.0,29.93,North,0,0.0,2.0,97,0.00,,,0.00,meteohub,2013-05-23 10:12:00,
2013-05-23 06:17:00,70.9,70.0,29.93,North,0,2.0,2.0,97,0.00,,,0.00,meteohub,2013-05-23 10:17:00,
2013-05-23 06:22:00,70.9,70.0,29.92,SW,225,1.0,2.0,97,0.00,,,0.00,meteohub,2013-05-23 10:22:00,
2013-05-23 06:27:00,70.9,70.0,29.92,East,90,1.0,2.0,97,0.00,,,0.00,meteohub,2013-05-23 10:27:00,
2013-05-23 06:32:00,71.1,70.2,29.92,East,90,1.0,2.0,97,0.00,,,0.00,meteohub,2013-05-23 10:32:00,
2013-05-23 06:37:00,71.1,70.2,29.92,NW,315,0.0,2.0,97,0.00,,,0.00,meteohub,2013-05-23 10:37:00,
2013-05-23 06:42:00,71.1,70.2,29.92,West,270,1.0,2.0,97,0.00,,,0.00,meteohub,2013-05-23 10:42:00,
2013-05-23 06:47:00,71.1,70.2,29.92,East,90,3.0,3.0,97,0.00,,,0.00,meteohub,2013-05-23 10:47:00,
2013-05-23 06:52:00,71.1,70.2,29.93,East,90,1.0,3.0,97,0.00,,,0.00,meteohub,2013-05-23 10:52:00,
2013-05-23 06:57:00,71.1,70.2,29.93,NE,45,0.0,3.0,97,0.00,,,0.00,meteohub,2013-05-23 10:57:00,
2013-05-23 07:02:00,71.1,70.2,29.92,NE,45,2.0,3.0,97,0.00,,,0.00,meteohub,2013-05-23 11:02:00,
2013-05-23 07:07:00,71.2,70.3,29.92,NE,45,1.0,2.0,97,0.00,,,0.00,meteohub,2013-05-23 11:07:00,
2013-05-23 07:12:00,71.2,70.3,29.92,West,270,1.0,2.0,97,0.00,,,0.00,meteohub,2013-05-23 11:12:00,
2013-05-23 07:17:00,71.4,70.5,29.92,NW,315,1.0,2.0,97,0.00,,,0.00,meteohub,2013-05-23 11:17:00,
2013-05-23 07:22:00,71.8,70.3,29.92,West,270,1.0,2.0,95,0.00,,,0.00,meteohub,2013-05-23 11:22:00,
2013-05-23 07:27:00,72.1,70.7,29.92,SW,225,1.0,2.0,95,0.00,,,0.00,meteohub,2013-05-23 11:27:00,
2013-05-23 07:32:00,72.3,70.5,29.92,West,270,2.0,2.0,94,0.00,,,0.00,meteohub,2013-05-23 11:32:00,
2013-05-23 07:37:00,72.5,70.3,29.92,South,180,2.0,3.0,93,0.00,,,0.00,meteohub,2013-05-23 11:37:00,
2013-05-23 07:42:00,72.5,70.3,29.92,West,270,2.0,4.0,93,0.00,,,0.00,meteohub,2013-05-23 11:42:00,
2013-05-23 07:47:00,72.5,70.0,29.92,West,270,3.0,4.0,92,0.00,,,0.00,meteohub,2013-05-23 11:47:00,
2013-05-23 07:52:00,72.7,70.2,29.92,North,0,0.0,4.0,92,0.00,,,0.00,meteohub,2013-05-23 11:52:00,
2013-05-23 07:57:00,73.0,70.5,29.92,NW,315,3.0,4.0,92,0.00,,,0.00,meteohub,2013-05-23 11:57:00,
2013-05-23 08:02:00,73.2,70.5,29.92,NE,45,1.0,7.0,91,0.00,,,0.00,meteohub,2013-05-23 12:02:00,
2013-05-23 08:07:00,73.4,70.9,29.92,NE,45,2.0,7.0,92,0.00,,,0.00,meteohub,2013-05-23 12:07:00,
2013-05-23 08:12:00,73.8,70.9,29.92,West,270,5.0,7.0,91,0.00,,,0.00,meteohub,2013-05-23 12:12:00,
2013-05-23 08:17:00,73.8,70.7,29.92,NW,315,3.0,5.0,90,0.00,,,0.00,meteohub,2013-05-23 12:17:00,
2013-05-23 08:22:00,73.6,70.2,29.92,SW,225,3.0,5.0,89,0.00,,,0.00,meteohub,2013-05-23 12:22:00,
2013-05-23 08:27:00,73.8,70.3,29.91,SW,225,3.0,5.0,89,0.00,,,0.00,meteohub,2013-05-23 12:27:00,
2013-05-23 08:33:00,73.6,70.2,29.92,North,0,4.0,4.0,89,0.00,,,0.00,meteohub,2013-05-23 12:33:00,
2013-05-23 08:38:00,73.4,69.6,29.91,SW,225,4.0,4.0,88,0.00,,,0.00,meteohub,2013-05-23 12:38:00,
2013-05-23 08:43:00,73.4,69.6,29.91,East,90,0.0,4.0,88,0.00,,,0.00,meteohub,2013-05-23 12:43:00,
2013-05-23 08:48:00,73.9,70.2,29.91,NE,45,2.0,4.0,88,0.00,,,0.00,meteohub,2013-05-23 12:48:00,
2013-05-23 08:53:00,75.4,71.2,29.91,SW,225,3.0,4.0,87,0.00,,,0.00,meteohub,2013-05-23 12:53:00,
2013-05-23 08:58:00,77.7,72.5,29.91,South,180,1.0,4.0,84,0.00,,,0.00,meteohub,2013-05-23 12:58:00,
2013-05-23 09:03:00,78.6,72.3,29.91,North,0,2.0,4.0,81,0.00,,,0.00,meteohub,2013-05-23 13:03:00,
2013-05-23 09:11:00,80.6,72.0,29.91,North,0,2.0,4.0,75,0.00,,,0.00,meteohub,2013-05-23 13:11:00,
2013-05-23 09:16:00,82.2,73.0,29.90,East,90,1.0,2.0,74,0.00,,,0.00,meteohub,2013-05-23 13:16:00,
2013-05-23 09:21:00,82.8,71.6,29.91,NE,45,2.0,3.0,69,0.00,,,0.00,meteohub,2013-05-23 13:21:00,
2013-05-23 09:26:00,82.6,71.4,29.91,NE,45,2.0,3.0,69,0.00,,,0.00,meteohub,2013-05-23 13:26:00,
2013-05-23 09:31:00,81.9,71.1,29.90,NE,45,1.0,3.0,70,0.00,,,0.00,meteohub,2013-05-23 13:31:00,
2013-05-23 09:36:00,81.0,70.7,29.90,NE,45,2.0,2.0,71,0.00,,,0.00,meteohub,2013-05-23 13:36:00,
2013-05-23 09:41:00,81.1,71.2,29.90,NE,45,2.0,2.0,72,0.00,,,0.00,meteohub,2013-05-23 13:41:00,
2013-05-23 09:46:00,81.7,71.4,29.90,NW,315,4.0,4.0,71,0.00,,,0.00,meteohub,2013-05-23 13:46:00,
2013-05-23 09:51:00,82.2,70.5,29.90,North,0,3.0,4.0,68,0.00,,,0.00,meteohub,2013-05-23 13:51:00,
2013-05-23 09:56:00,82.8,70.7,29.90,North,0,2.0,4.0,67,0.00,,,0.00,meteohub,2013-05-23 13:56:00,
2013-05-23 10:01:00,82.2,69.3,29.90,SW,225,2.0,4.0,65,0.00,,,0.00,meteohub,2013-05-23 14:01:00,
2013-05-23 10:06:00,82.0,69.6,29.90,NE,45,3.0,4.0,66,0.00,,,0.00,meteohub,2013-05-23 14:06:00,
2013-05-23 10:11:00,81.5,70.0,29.90,NE,45,2.0,4.0,68,0.00,,,0.00,meteohub,2013-05-23 14:11:00,
2013-05-23 10:16:00,81.3,69.3,29.90,West,270,1.0,3.0,67,0.00,,,0.00,meteohub,2013-05-23 14:16:00,
2013-05-23 10:21:00,81.7,70.2,29.90,NE,45,2.0,3.0,68,0.00,,,0.00,meteohub,2013-05-23 14:21:00,
2013-05-23 10:26:00,82.6,70.0,29.90,NE,45,0.0,3.0,66,0.00,,,0.00,meteohub,2013-05-23 14:26:00,
2013-05-23 10:31:00,83.5,70.9,29.90,East,90,1.0,3.0,66,0.00,,,0.00,meteohub,2013-05-23 14:31:00,
2013-05-23 10:36:00,84.4,71.2,29.90,East,90,2.0,2.0,65,0.00,,,0.00,meteohub,2013-05-23 14:36:00,
2013-05-23 10:41:00,84.7,71.6,29.90,North,0,3.0,3.0,65,0.00,,,0.00,meteohub,2013-05-23 14:41:00,
2013-05-23 10:46:00,85.3,71.8,29.89,East,90,2.0,3.0,64,0.00,,,0.00,meteohub,2013-05-23 14:46:00,
2013-05-23 10:51:00,85.8,72.1,29.90,East,90,2.0,3.0,64,0.00,,,0.00,meteohub,2013-05-23 14:51:00,
2013-05-23 10:56:00,86.0,72.0,29.89,NE,45,1.0,3.0,63,0.00,,,0.00,meteohub,2013-05-23 14:56:00,
2013-05-23 11:01:00,85.8,72.7,29.89,NE,45,2.0,2.0,65,0.00,,,0.00,meteohub,2013-05-23 15:01:00,
2013-05-23 11:06:00,86.4,72.3,29.89,West,270,2.0,2.0,63,0.00,,,0.00,meteohub,2013-05-23 15:06:00,
2013-05-23 11:11:00,86.4,71.8,29.89,NE,45,2.0,2.0,62,0.00,,,0.00,meteohub,2013-05-23 15:11:00,
2013-05-23 11:16:00,86.7,72.7,29.89,North,0,3.0,4.0,63,0.00,,,0.00,meteohub,2013-05-23 15:16:00,
2013-05-23 11:21:00,86.7,72.1,29.89,NW,315,2.0,4.0,62,0.00,,,0.00,meteohub,2013-05-23 15:21:00,
2013-05-23 11:26:00,86.7,72.1,29.89,NE,45,1.0,4.0,62,0.00,,,0.00,meteohub,2013-05-23 15:26:00,
2013-05-23 11:31:00,86.5,71.4,29.89,SW,225,2.0,3.0,61,0.00,,,0.00,meteohub,2013-05-23 15:31:00,
2013-05-23 11:36:00,85.5,72.0,29.89,West,270,2.0,2.0,64,0.00,,,0.00,meteohub,2013-05-23 15:36:00,
2013-05-23 11:41:00,84.2,71.2,29.89,NE,45,2.0,2.0,65,0.00,,,0.00,meteohub,2013-05-23 15:41:00,
2013-05-23 11:46:00,83.1,71.1,29.89,NE,45,0.0,2.0,67,0.00,,,0.00,meteohub,2013-05-23 15:46:00,
2013-05-23 11:51:00,82.9,70.9,29.88,NE,45,1.0,2.0,67,0.00,,,0.00,meteohub,2013-05-23 15:51:00,
2013-05-23 11:56:00,84.6,72.0,29.88,NE,45,1.0,2.0,66,0.00,,,0.00,meteohub,2013-05-23 15:56:00,
2013-05-23 12:01:00,85.3,72.7,29.88,SW,225,1.0,2.0,66,0.00,,,0.00,meteohub,2013-05-23 16:01:00,
2013-05-23 12:06:00,86.0,72.3,29.89,North,0,1.0,2.0,64,0.00,,,0.00,meteohub,2013-05-23 16:06:00,
2013-05-23 12:11:00,85.8,73.6,29.88,North,0,2.0,3.0,67,0.00,,,0.00,meteohub,2013-05-23 16:11:00,
2013-05-23 12:17:00,85.8,72.1,29.88,NW,315,2.0,3.0,64,0.00,,,0.00,meteohub,2013-05-23 16:17:00,
2013-05-23 12:22:00,85.1,71.1,29.88,West,270,1.0,4.0,63,0.00,,,0.00,meteohub,2013-05-23 16:22:00,
2013-05-23 12:27:00,84.6,71.4,29.88,NE,45,1.0,4.0,65,0.00,,,0.00,meteohub,2013-05-23 16:27:00,
2013-05-23 12:32:00,83.3,71.2,29.88,NE,45,1.0,4.0,67,0.00,,,0.00,meteohub,2013-05-23 16:32:00,
2013-05-23 12:37:00,82.6,71.4,29.88,East,90,3.0,3.0,69,0.00,,,0.00,meteohub,2013-05-23 16:37:00,
2013-05-23 12:42:00,82.9,71.2,29.88,West,270,2.0,3.0,68,0.00,,,0.00,meteohub,2013-05-23 16:42:00,
2013-05-23 12:47:00,83.3,72.1,29.87,West,270,2.0,3.0,69,0.00,,,0.00,meteohub,2013-05-23 16:47:00,
2013-05-23 12:52:00,83.3,72.1,29.87,West,270,2.0,3.0,69,0.00,,,0.00,meteohub,2013-05-23 16:52:00,
2013-05-23 12:57:00,83.3,72.1,29.88,West,270,2.0,2.0,69,0.00,,,0.00,meteohub,2013-05-23 16:57:00,
2013-05-23 13:02:00,82.9,71.8,29.87,NW,315,1.0,2.0,69,0.00,,,0.00,meteohub,2013-05-23 17:02:00,
2013-05-23 13:07:00,82.8,72.0,29.87,SW,225,2.0,2.0,70,0.00,,,0.00,meteohub,2013-05-23 17:07:00,
2013-05-23 13:12:00,82.4,71.6,29.86,SW,225,1.0,2.0,70,0.00,,,0.00,meteohub,2013-05-23 17:12:00,
2013-05-23 13:17:00,82.2,72.3,29.86,NE,45,2.0,2.0,72,0.00,,,0.00,meteohub,2013-05-23 17:17:00,
2013-05-23 13:22:00,83.5,72.3,29.86,West,270,2.0,2.0,69,0.00,,,0.00,meteohub,2013-05-23 17:22:00,
2013-05-23 13:27:00,84.4,71.8,29.86,North,0,2.0,2.0,66,0.00,,,0.00,meteohub,2013-05-23 17:27:00,
2013-05-23 13:32:00,84.6,71.1,29.86,North,0,1.0,2.0,64,0.00,,,0.00,meteohub,2013-05-23 17:32:00,
2013-05-23 13:37:00,85.1,71.6,29.85,NE,45,1.0,2.0,64,0.00,,,0.00,meteohub,2013-05-23 17:37:00,
2013-05-23 13:42:00,86.4,72.7,29.84,East,90,3.0,3.0,64,0.00,,,0.00,meteohub,2013-05-23 17:42:00,
2013-05-23 13:47:00,86.7,72.1,29.84,NE,45,2.0,3.0,62,0.00,,,0.00,meteohub,2013-05-23 17:47:00,
2013-05-23 13:52:00,86.4,71.2,29.84,NE,45,2.0,3.0,61,0.00,,,0.00,meteohub,2013-05-23 17:52:00,
2013-05-23 13:57:00,86.4,71.2,29.83,North,0,2.0,4.0,61,0.00,,,0.00,meteohub,2013-05-23 17:57:00,
2013-05-23 14:02:00,86.5,72.5,29.83,East,90,2.0,4.0,63,0.00,,,0.00,meteohub,2013-05-23 18:02:00,
2013-05-23 14:07:00,86.5,72.5,29.83,East,90,2.0,4.0,63,0.00,,,0.00,meteohub,2013-05-23 18:07:00,
2013-05-23 14:12:00,86.5,72.5,29.83,North,0,2.0,4.0,63,0.00,,,0.00,meteohub,2013-05-23 18:12:00,
2013-05-23 14:17:00,85.3,72.1,29.83,NW,315,2.0,2.0,65,0.00,,,0.00,meteohub,2013-05-23 18:17:00,
2013-05-23 14:22:00,84.9,72.3,29.83,NW,315,1.0,3.0,66,0.00,,,0.00,meteohub,2013-05-23 18:22:00,
2013-05-23 14:27:00,85.5,72.9,29.83,West,270,2.0,3.0,66,0.00,,,0.00,meteohub,2013-05-23 18:27:00,
2013-05-23 14:32:00,85.8,72.1,29.82,NW,315,2.0,3.0,64,0.00,,,0.00,meteohub,2013-05-23 18:32:00,
2013-05-23 14:37:00,86.2,71.6,29.82,NE,45,2.0,2.0,62,0.00,,,0.00,meteohub,2013-05-23 18:37:00,
2013-05-23 14:42:00,85.5,72.0,29.83,West,270,1.0,2.0,64,0.00,,,0.00,meteohub,2013-05-23 18:42:00,
2013-05-23 14:47:00,85.5,72.0,29.82,North,0,2.0,2.0,64,0.00,,,0.00,meteohub,2013-05-23 18:47:00,
2013-05-23 14:52:00,85.1,71.1,29.82,NE,45,2.0,2.0,63,0.00,,,0.00,meteohub,2013-05-23 18:52:00,
2013-05-23 14:57:00,84.6,71.1,29.83,NE,45,2.0,2.0,64,0.00,,,0.00,meteohub,2013-05-23 18:57:00,
2013-05-23 15:02:00,83.8,70.9,29.83,North,0,0.0,2.0,65,0.00,,,0.00,meteohub,2013-05-23 19:02:00,
2013-05-23 15:07:00,83.5,70.5,29.82,NE,45,2.0,2.0,65,0.00,,,0.00,meteohub,2013-05-23 19:07:00,
2013-05-23 15:12:00,82.9,70.3,29.81,NW,315,1.0,2.0,66,0.00,,,0.00,meteohub,2013-05-23 19:12:00,
2013-05-23 15:17:00,82.4,70.3,29.81,NE,45,0.0,2.0,67,0.00,,,0.00,meteohub,2013-05-23 19:17:00,
2013-05-23 15:22:00,82.8,71.6,29.81,NE,45,0.0,2.0,69,0.00,,,0.00,meteohub,2013-05-23 19:22:00,
2013-05-23 15:27:00,82.9,71.8,29.81,West,270,2.0,2.0,69,0.00,,,0.00,meteohub,2013-05-23 19:27:00,
2013-05-23 15:32:00,82.4,71.2,29.81,NE,45,1.0,2.0,69,0.00,,,0.00,meteohub,2013-05-23 19:32:00,
2013-05-23 15:37:00,81.7,71.4,29.81,NE,45,0.0,2.0,71,0.00,,,0.00,meteohub,2013-05-23 19:37:00,
2013-05-23 15:42:00,81.1,71.2,29.82,West,270,1.0,2.0,72,0.00,,,0.00,meteohub,2013-05-23 19:42:00,
2013-05-23 15:47:00,81.1,71.6,29.81,NE,45,0.0,2.0,73,0.00,,,0.00,meteohub,2013-05-23 19:47:00,
2013-05-23 15:52:00,81.0,71.4,29.81,SW,225,0.0,2.0,73,0.00,,,0.00,meteohub,2013-05-23 19:52:00,
2013-05-23 15:57:00,81.1,72.1,29.81,NE,45,0.0,2.0,74,0.00,,,0.00,meteohub,2013-05-23 19:57:00,
2013-05-23 16:02:00,81.3,72.3,29.81,SW,225,0.0,2.0,74,0.00,,,0.00,meteohub,2013-05-23 20:02:00,
2013-05-23 16:07:00,81.0,71.4,29.81,SW,225,2.0,2.0,73,0.00,,,0.00,meteohub,2013-05-23 20:07:00,
2013-05-23 16:12:00,80.8,71.8,29.81,South,180,2.0,3.0,74,0.00,,,0.00,meteohub,2013-05-23 20:12:00,
2013-05-23 16:17:00,79.7,71.1,29.81,NE,45,2.0,3.0,75,0.00,,,0.00,meteohub,2013-05-23 20:17:00,
2013-05-23 16:22:00,79.0,70.7,29.81,NE,45,1.0,3.0,76,0.00,,,0.00,meteohub,2013-05-23 20:22:00,
2013-05-23 16:27:00,78.6,71.2,29.81,SW,225,2.0,4.0,78,0.00,,,0.00,meteohub,2013-05-23 20:27:00,
2013-05-23 16:32:00,78.3,71.2,29.81,West,270,2.0,4.0,79,0.00,,,0.00,meteohub,2013-05-23 20:32:00,
2013-05-23 16:37:00,77.9,71.2,29.80,SW,225,2.0,4.0,80,0.00,,,0.00,meteohub,2013-05-23 20:37:00,
2013-05-23 16:42:00,77.9,71.6,29.80,West,270,0.0,4.0,81,0.00,,,0.00,meteohub,2013-05-23 20:42:00,
2013-05-23 16:47:00,78.1,71.8,29.80,West,270,2.0,4.0,81,0.00,,,0.00,meteohub,2013-05-23 20:47:00,
2013-05-23 16:52:00,78.3,71.6,29.80,SE,135,2.0,2.0,80,0.00,,,0.00,meteohub,2013-05-23 20:52:00,
2013-05-23 16:57:00,78.4,71.8,29.79,NW,315,2.0,2.0,80,0.00,,,0.00,meteohub,2013-05-23 20:57:00,
2013-05-23 17:02:00,78.6,72.0,29.80,SW,225,2.0,3.0,80,0.00,,,0.00,meteohub,2013-05-23 21:02:00,
2013-05-23 17:07:00,78.6,72.0,29.80,NW,315,2.0,3.0,80,0.00,,,0.00,meteohub,2013-05-23 21:07:00,
2013-05-23 17:12:00,78.4,71.8,29.80,NW,315,1.0,4.0,80,0.00,,,0.00,meteohub,2013-05-23 21:12:00,
2013-05-23 17:17:00,78.4,72.1,29.80,NW,315,1.0,4.0,81,0.00,,,0.00,meteohub,2013-05-23 21:17:00,
2013-05-23 17:22:00,78.3,72.3,29.81,West,270,0.0,4.0,82,0.00,,,0.00,meteohub,2013-05-23 21:22:00,
2013-05-23 17:27:00,78.3,72.3,29.80,NW,315,0.0,2.0,82,0.00,,,0.00,meteohub,2013-05-23 21:27:00,
2013-05-23 17:32:00,78.3,72.3,29.81,West,270,1.0,2.0,82,0.00,,,0.00,meteohub,2013-05-23 21:32:00,
2013-05-23 17:37:00,78.1,72.1,29.80,NE,45,0.0,2.0,82,0.00,,,0.00,meteohub,2013-05-23 21:37:00,
2013-05-23 17:42:00,78.1,72.1,29.81,NE,45,0.0,3.0,82,0.00,,,0.00,meteohub,2013-05-23 21:42:00,
2013-05-23 17:47:00,77.9,72.3,29.81,South,180,0.0,3.0,83,0.00,,,0.00,meteohub,2013-05-23 21:47:00,
2013-05-23 17:52:00,77.9,72.3,29.80,SW,225,2.0,3.0,83,0.00,,,0.00,meteohub,2013-05-23 21:52:00,
2013-05-23 17:57:00,77.7,72.1,29.80,SW,225,0.0,1.0,83,0.00,,,0.00,meteohub,2013-05-23 21:57:00,
2013-05-23 18:02:00,77.5,72.0,29.80,SW,225,0.0,2.0,83,0.00,,,0.00,meteohub,2013-05-23 22:02:00,
2013-05-23 18:07:00,77.5,72.3,29.80,East,90,0.0,2.0,84,0.00,,,0.00,meteohub,2013-05-23 22:07:00,
2013-05-23 18:12:00,77.5,72.3,29.80,South,180,1.0,2.0,84,0.00,,,0.00,meteohub,2013-05-23 22:12:00,
2013-05-23 18:17:00,77.4,72.1,29.79,West,270,0.0,2.0,84,0.00,,,0.00,meteohub,2013-05-23 22:17:00,
2013-05-23 18:22:00,77.4,72.1,29.79,West,270,1.0,2.0,84,0.00,,,0.00,meteohub,2013-05-23 22:22:00,
2013-05-23 18:27:00,77.4,72.1,29.80,West,270,0.0,2.0,84,0.00,,,0.00,meteohub,2013-05-23 22:27:00,
2013-05-23 18:32:00,77.4,72.1,29.80,North,0,1.0,2.0,84,0.00,,,0.00,meteohub,2013-05-23 22:32:00,
2013-05-23 18:37:00,77.4,72.1,29.80,East,90,1.0,1.0,84,0.00,,,0.00,meteohub,2013-05-23 22:37:00,
2013-05-23 18:43:00,77.5,72.3,29.80,South,180,1.0,1.0,84,0.00,,,0.00,meteohub,2013-05-23 22:43:00,
2013-05-23 18:48:00,77.5,72.3,29.80,East,90,0.0,1.0,84,0.00,,,0.00,meteohub,2013-05-23 22:48:00,
2013-05-23 18:53:00,77.4,72.1,29.79,NE,45,1.0,2.0,84,0.00,,,0.00,meteohub,2013-05-23 22:53:00,
2013-05-23 18:58:00,77.4,72.5,29.79,East,90,1.0,2.0,85,0.00,,,0.00,meteohub,2013-05-23 22:58:00,
2013-05-23 19:03:00,77.4,72.5,29.79,East,90,0.0,2.0,85,0.00,,,0.00,meteohub,2013-05-23 23:03:00,
2013-05-23 19:08:00,77.5,72.7,29.79,North,0,1.0,2.0,85,0.00,,,0.00,meteohub,2013-05-23 23:08:00,
2013-05-23 19:13:00,77.5,72.7,29.79,East,90,1.0,2.0,85,0.00,,,0.00,meteohub,2013-05-23 23:13:00,
2013-05-23 19:18:00,77.5,72.3,29.78,North,0,2.0,2.0,84,0.00,,,0.00,meteohub,2013-05-23 23:18:00,
2013-05-23 19:23:00,77.2,71.6,29.78,NE,45,2.0,4.0,83,0.00,,,0.00,meteohub,2013-05-23 23:23:00,
2013-05-23 19:28:00,77.0,71.4,29.79,NE,45,0.0,4.0,83,0.00,,,0.00,meteohub,2013-05-23 23:28:00,
2013-05-23 19:33:00,76.6,71.8,29.80,NE,45,1.0,4.0,85,0.00,,,0.00,meteohub,2013-05-23 23:33:00,
2013-05-23 19:38:00,76.5,71.6,29.80,SE,135,0.0,3.0,85,0.00,,,0.00,meteohub,2013-05-23 23:38:00,
2013-05-23 19:43:00,76.3,71.4,29.81,SW,225,0.0,2.0,85,0.00,,,0.00,meteohub,2013-05-23 23:43:00,
2013-05-23 19:48:00,76.1,71.6,29.80,SW,225,0.0,1.0,86,0.00,,,0.00,meteohub,2013-05-23 23:48:00,
2013-05-23 19:53:00,75.9,71.4,29.81,SW,225,1.0,2.0,86,0.00,,,0.00,meteohub,2013-05-23 23:53:00,
2013-05-23 19:58:00,75.7,72.0,29.81,NW,315,2.0,2.0,88,0.00,,,0.00,meteohub,2013-05-23 23:58:00,
2013-05-23 20:03:00,75.6,71.8,29.81,SW,225,2.0,3.0,88,0.00,,,0.00,meteohub,2013-05-24 00:03:00,
2013-05-23 20:08:00,75.6,72.1,29.80,SE,135,0.0,3.0,89,0.00,,,0.00,meteohub,2013-05-24 00:08:00,
2013-05-23 20:13:00,75.6,72.1,29.80,West,270,0.0,3.0,89,0.00,,,0.00,meteohub,2013-05-24 00:13:00,
2013-05-23 20:18:00,75.4,72.3,29.80,West,270,0.0,2.0,90,0.00,,,0.00,meteohub,2013-05-24 00:18:00,
2013-05-23 20:23:00,75.2,72.1,29.80,NW,315,0.0,2.0,90,0.00,,,0.00,meteohub,2013-05-24 00:23:00,
2013-05-23 20:28:00,75.0,72.1,29.80,NW,315,0.0,2.0,91,0.00,,,0.00,meteohub,2013-05-24 00:28:00,
2013-05-23 20:33:00,74.7,71.8,29.80,East,90,0.0,2.0,91,0.00,,,0.00,meteohub,2013-05-24 00:33:00,
2013-05-23 20:38:00,74.5,72.0,29.79,NE,45,1.0,2.0,92,0.00,,,0.00,meteohub,2013-05-24 00:38:00,
2013-05-23 20:43:00,74.3,72.1,29.79,East,90,2.0,2.0,93,0.00,,,0.00,meteohub,2013-05-24 00:43:00,
2013-05-23 20:48:00,74.1,72.0,29.79,ENE,68,2.0,2.0,93,0.00,,,0.00,meteohub,2013-05-24 00:48:00,
2013-05-23 20:53:00,73.9,72.1,29.79,NE,45,2.0,2.0,94,0.00,,,0.00,meteohub,2013-05-24 00:53:00,
2013-05-23 20:58:00,73.8,72.3,29.79,NE,45,0.0,2.0,95,0.00,,,0.00,meteohub,2013-05-24 00:58:00,
2013-05-23 21:03:00,73.6,72.1,29.79,East,90,0.0,2.0,95,0.00,,,0.00,meteohub,2013-05-24 01:03:00,
2013-05-23 21:08:00,73.4,72.0,29.80,East,90,0.0,2.0,95,0.00,,,0.00,meteohub,2013-05-24 01:08:00,
2013-05-23 21:13:00,73.2,71.8,29.80,West,270,1.0,2.0,95,0.00,,,0.00,meteohub,2013-05-24 01:13:00,
2013-05-23 21:18:00,73.2,71.8,29.81,NE,45,2.0,2.0,95,0.00,,,0.00,meteohub,2013-05-24 01:18:00,
2013-05-23 21:23:00,73.0,71.6,29.81,SW,225,0.0,2.0,95,0.00,,,0.00,meteohub,2013-05-24 01:23:00,
2013-05-23 21:28:00,72.9,71.4,29.81,East,90,1.0,2.0,95,0.00,,,0.00,meteohub,2013-05-24 01:28:00,
2013-05-23 21:33:00,72.7,71.4,29.81,NE,45,1.0,2.0,96,0.00,,,0.00,meteohub,2013-05-24 01:33:00,
2013-05-23 21:38:00,72.7,71.4,29.82,SW,225,1.0,3.0,96,0.00,,,0.00,meteohub,2013-05-24 01:38:00,
2013-05-23 21:43:00,72.7,71.4,29.82,NE,45,1.0,3.0,96,0.00,,,0.00,meteohub,2013-05-24 01:43:00,
2013-05-23 21:48:00,72.7,71.4,29.82,NE,45,0.0,3.0,96,0.00,,,0.00,meteohub,2013-05-24 01:48:00,
2013-05-23 21:53:00,72.7,71.4,29.82,West,270,0.0,2.0,96,0.00,,,0.00,meteohub,2013-05-24 01:53:00,
2013-05-23 21:59:00,72.7,71.4,29.82,West,270,0.0,2.0,96,0.00,,,0.00,meteohub,2013-05-24 01:59:00,
2013-05-23 22:04:00,72.7,71.4,29.83,NW,315,2.0,2.0,96,0.00,,,0.00,meteohub,2013-05-24 02:04:00,
2013-05-23 22:09:00,72.7,71.4,29.83,SW,225,0.0,2.0,96,0.00,,,0.00,meteohub,2013-05-24 02:09:00,
2013-05-23 22:14:00,72.7,71.4,29.83,SW,225,0.0,2.0,96,0.00,,,0.00,meteohub,2013-05-24 02:14:00,
2013-05-23 22:19:00,72.7,71.4,29.83,SE,135,1.0,2.0,96,0.00,,,0.00,meteohub,2013-05-24 02:19:00,
2013-05-23 22:24:00,72.7,71.4,29.83,West,270,2.0,2.0,96,0.00,,,0.00,meteohub,2013-05-24 02:24:00,
2013-05-23 22:29:00,72.7,71.4,29.83,East,90,1.0,2.0,96,0.00,,,0.00,meteohub,2013-05-24 02:29:00,
2013-05-23 22:34:00,72.7,71.4,29.83,South,180,1.0,2.0,96,0.00,,,0.00,meteohub,2013-05-24 02:34:00,
2013-05-23 22:39:00,72.5,71.2,29.83,East,90,4.0,4.0,96,0.00,,,0.00,meteohub,2013-05-24 02:39:00,
2013-05-23 22:44:00,72.5,71.2,29.83,SW,225,0.0,4.0,96,0.00,,,0.00,meteohub,2013-05-24 02:44:00,
2013-05-23 22:49:00,72.3,71.1,29.82,NW,315,0.0,4.0,96,0.00,,,0.00,meteohub,2013-05-24 02:49:00,
2013-05-23 22:54:00,72.3,71.1,29.83,NW,315,0.0,4.0,96,0.00,,,0.00,meteohub,2013-05-24 02:54:00,
2013-05-23 22:59:00,72.1,70.9,29.83,SW,225,2.0,2.0,96,0.00,,,0.00,meteohub,2013-05-24 02:59:00,
2013-05-23 23:04:00,72.1,70.9,29.83,SW,225,2.0,2.0,96,0.00,,,0.00,meteohub,2013-05-24 03:04:00,
2013-05-23 23:09:00,72.1,70.9,29.83,SW,225,2.0,3.0,96,0.00,,,0.00,meteohub,2013-05-24 03:09:00,
2013-05-23 23:14:00,71.8,70.5,29.83,NW,315,1.0,3.0,96,0.00,,,0.00,meteohub,2013-05-24 03:14:00,
2013-05-23 23:19:00,71.6,70.3,29.83,South,180,1.0,2.0,96,0.00,,,0.00,meteohub,2013-05-24 03:19:00,
2013-05-23 23:24:00,71.6,70.3,29.83,West,270,1.0,2.0,96,0.00,,,0.00,meteohub,2013-05-24 03:24:00,
2013-05-23 23:29:00,71.2,70.3,29.83,West,270,1.0,2.0,97,0.00,,,0.00,meteohub,2013-05-24 03:29:00,
2013-05-23 23:34:00,71.2,70.3,29.83,SE,135,2.0,2.0,97,0.00,,,0.00,meteohub,2013-05-24 03:34:00,
2013-05-23 23:39:00,71.2,70.3,29.83,SW,225,1.0,2.0,97,0.00,,,0.00,meteohub,2013-05-24 03:39:00,
2013-05-23 23:44:00,70.9,70.3,29.82,West,270,1.0,2.0,98,0.00,,,0.00,meteohub,2013-05-24 03:44:00,
2013-05-23 23:49:00,70.9,70.3,29.82,SW,225,0.0,2.0,98,0.00,,,0.00,meteohub,2013-05-24 03:49:00,
2013-05-23 23:54:00,70.7,70.2,29.83,West,270,1.0,2.0,98,0.00,,,0.00,meteohub,2013-05-24 03:54:00,
2013-05-23 23:59:00,70.7,70.2,29.83,West,270,1.0,2.0,98,0.00,,,0.00,meteohub,2013-05-24 03:59:00,